Tracking 22993 objects as of 10-May-2021
HD Live streaming from Space Station
objects crossing your sky now

SL-12 R/B(2)

Track SL-12 R/B(2) now!


NORAD ID: 26090
Int'l Code: 2000-011B
Perigee: 6,380.0 km
Apogee: 35,813.9 km
Inclination: 16.8 °
Period: 755.1 minutes
Semi major axis: 27467 km
RCS: 23.8279 m2 (large)
Launch date: February 12, 2000
Source: Commonwealth of Independent States (former USSR) (CIS)
Launch site: TYURATAM MISSILE AND SPACE COMPLEX (TTMTR)

Note: This is a ROCKET BODY
aabbcc
Your satellite tracking list
Your tracking list is empty




NASA's NSSDC Master Catalog

Two Line Element Set (TLE):
1 26090U 00011B   21129.83100096  .00000027  00000-0  00000+0 0  9999
2 26090  16.8179  84.9479 5357864 275.9111 302.9068  1.90705905147989
Source of the keplerian elements: AFSPC